LKKU Weather Reports


time (UTC)temp
F
wind
direction
speed
knots
gust
knots
rain 1hr
in
rain 24hr
in
rain mn
in
humidity
%
barometer
mb
20260905170614 75 290 8.7 0.0 0.00 0.00 0.00 33 1018.0
20260905163900 75 290 8.7 0.0 0.00 0.00 0.00 33 1018.0
20260905162958 75 290 8.7 0.0 0.00 0.00 0.00 33 1018.0
20260905162313 75 290 8.7 0.0 0.00 0.00 0.00 33 1018.0
20260905161700 75 290 8.7 0.0 0.00 0.00 0.00 33 1018.0
20260905161200 75 290 8.7 0.0 0.00 0.00 0.00 33 1018.0
20260905160859 75 290 8.7 0.0 0.00 0.00 0.00 33 1018.0
20260905160403 75 290 8.7 0.0 0.00 0.00 0.00 33 1018.0
20260905154759 77 270 11.3 0.0 0.00 0.00 0.00 31 1018.0
20260905154621 77 270 11.3 0.0 0.00 0.00 0.00 31 1018.0
20260905154300 77 270 11.3 0.0 0.00 0.00 0.00 31 1018.0
20260905151910 77 270 11.3 0.0 0.00 0.00 0.00 31 1018.0
20260905151200 77 270 11.3 0.0 0.00 0.00 0.00 31 1018.0
20260905150658 77 270 11.3 0.0 0.00 0.00 0.00 31 1018.0
20260905145959 77 290 11.3 0.0 0.00 0.00 0.00 31 1018.0
20260905145659 77 290 11.3 0.0 0.00 0.00 0.00 31 1018.0
20260905145158 77 290 11.3 0.0 0.00 0.00 0.00 31 1018.0
20260905144259 77 290 11.3 0.0 0.00 0.00 0.00 31 1018.0
20260905143800 77 290 11.3 0.0 0.00 0.00 0.00 31 1018.0
20260905142206 77 290 11.3 0.0 0.00 0.00 0.00 31 1018.0
20260905140520 77 290 11.3 0.0 0.00 0.00 0.00 31 1018.0
20260905140204 77 270 8.7 0.0 0.00 0.00 0.00 38 1018.0
20260905135121 77 270 8.7 0.0 0.00 0.00 0.00 38 1018.0
20260905134659 77 270 8.7 0.0 0.00 0.00 0.00 38 1018.0
20260905134259 77 270 8.7 0.0 0.00 0.00 0.00 38 1018.0
20260905133900 77 270 8.7 0.0 0.00 0.00 0.00 38 1018.0
20260905133513 77 270 8.7 0.0 0.00 0.00 0.00 38 1018.0
20260905133159 77 270 8.7 0.0 0.00 0.00 0.00 38 1018.0
20260905132316 77 270 8.7 0.0 0.00 0.00 0.00 38 1018.0
20260905131658 77 270 8.7 0.0 0.00 0.00 0.00 38 1018.0
20260905131159 77 270 8.7 0.0 0.00 0.00 0.00 38 1018.0
20260905130759 77 270 8.7 0.0 0.00 0.00 0.00 38 1018.0
20260905130410 77 270 8.7 0.0 0.00 0.00 0.00 38 1018.0
20260905130307 72 270 10.4 0.0 0.00 0.00 0.00 46 1019.0
20260905125659 72 270 10.4 0.0 0.00 0.00 0.00 46 1019.0
20260905125500 72 270 10.4 0.0 0.00 0.00 0.00 46 1019.0
20260905125300 72 270 10.4 0.0 0.00 0.00 0.00 46 1019.0
20260905124959 72 270 10.4 0.0 0.00 0.00 0.00 46 1019.0
20260905124620 72 270 10.4 0.0 0.00 0.00 0.00 46 1019.0
20260905124120 72 270 10.4 0.0 0.00 0.00 0.00 46 1019.0
20260905123700 72 270 10.4 0.0 0.00 0.00 0.00 46 1019.0
20260905123359 72 270 10.4 0.0 0.00 0.00 0.00 46 1019.0
20260905123200 72 270 10.4 0.0 0.00 0.00 0.00 46 1019.0
20260905122213 72 270 10.4 0.0 0.00 0.00 0.00 46 1019.0
20260905121810 72 270 10.4 0.0 0.00 0.00 0.00 46 1019.0
20260905121159 72 270 10.4 0.0 0.00 0.00 0.00 46 1019.0
20260905120615 72 270 10.4 0.0 0.00 0.00 0.00 46 1019.0
20260905115907 72 250 7.0 0.0 0.00 0.00 0.00 56 1019.0
20260905114120 72 250 7.0 0.0 0.00 0.00 0.00 56 1019.0
20260905112759 72 250 7.0 0.0 0.00 0.00 0.00 56 1019.0
20260905112312 72 250 7.0 0.0 0.00 0.00 0.00 56 1019.0
20260905111913 72 250 7.0 0.0 0.00 0.00 0.00 56 1019.0
20260905110306 72 250 7.0 0.0 0.00 0.00 0.00 56 1019.0
20260905105259 68 250 7.0 0.0 0.00 0.00 0.00 60 1019.0
20260905105121 68 250 7.0 0.0 0.00 0.00 0.00 60 1019.0
20260905104659 68 250 7.0 0.0 0.00 0.00 0.00 60 1019.0
20260905104359 68 250 7.0 0.0 0.00 0.00 0.00 60 1019.0
20260905102859 68 250 7.0 0.0 0.00 0.00 0.00 60 1019.0
20260905102411 68 250 7.0 0.0 0.00 0.00 0.00 60 1019.0
20260905101959 68 250 7.0 0.0 0.00 0.00 0.00 60 1019.0
20260905101459 68 250 7.0 0.0 0.00 0.00 0.00 60 1019.0
20260905100859 68 250 7.0 0.0 0.00 0.00 0.00 60 1019.0
20260905100422 68 250 7.0 0.0 0.00 0.00 0.00 60 1019.0
20260905095259 66 250 7.8 0.0 0.00 0.00 0.00 68 1020.0
20260905094859 66 250 7.8 0.0 0.00 0.00 0.00 68 1020.0
20260905094259 66 250 7.8 0.0 0.00 0.00 0.00 68 1020.0
20260905093800 66 250 7.8 0.0 0.00 0.00 0.00 68 1020.0
20260905092459 66 250 7.8 0.0 0.00 0.00 0.00 68 1020.0
20260905092019 66 250 7.8 0.0 0.00 0.00 0.00 68 1020.0
20260905090900 66 250 7.8 0.0 0.00 0.00 0.00 68 1020.0
20260905090307 66 250 7.8 0.0 0.00 0.00 0.00 68 1020.0
20260905084259 63 260 4.3 0.0 0.00 0.00 0.00 88 1019.0
20260905080241 63 260 4.3 0.0 0.00 0.00 0.00 88 1019.0
20260905073804 63 210 6.1 0.0 0.00 0.00 0.00 88 1018.0
20260905070306 63 210 7.0 0.0 0.00 0.00 0.00 82 1018.0
20260905060306 63 0 1.7 0.0 0.00 0.00 0.00 88 1018.0